User: anonymous   Login
Location: Roc des P�zouls
(43.9667°N, 3.5500°E)
Time: 21:12:32
(UTC+00:00)
Language:

Radarsat Rocket - Orbit

View from above orbital plane
View from above orbital plane
View from above satellite
View from above satellite

Ground track
Ground track

The orbit data is extracted from the following two-line orbital elements,

1 23711U 95059B   20027.47452376 -.00000034  00000-0  26572-4 0  9995
2 23711 100.6220  30.5962 0367691 324.4508 191.1272 13.12716727161008
Epoch (UTC): 27 January 2020 11:23:18
Eccentricity: 0.0367691
inclination: 100.6220°
perigee height: 933 km
apogee height: 1492 km
right ascension of ascending node: 30.5962°
argument of perigee: 324.4508°
revolutions per day: 13.12716727
mean anomaly at epoch: 191.1272°
orbit number at epoch: 16100

The dashed part of the orbit path shows where the satellite is in the earth's shadow,  

DLR